Home > Weather > Alexandria > Past weeks

Flag for USA Weather for the Past 2 Weeks in Alexandria, Virginia, USA

Now
52 °F

Low clouds.


Feels Like: 49 °F
Forecast: 50 / 62 °F
Wind: 8 mph from Northeast

Location: Reagan National Airport

Current Time: Apr 30, 2016 at 4:11:25 AM

Latest Report: Apr 30, 2016 at 2:52 AM


Visibility: 10 mi

Pressure: 30.13 "Hg

Humidity: 93%

Dew Point: 50 °F

Location of AlexandriaLocation

Historic Weather in Alexandria — Graph

°F

Alexandria Temperature Yesterday

Maximum temperature yesterday: 55 °F (at 3:52 PM)
Minimum temperature yesterday: 48 °F (at 12:00 AM)
Average temperature yesterday: 51 °F

High & Low Weather Summary for the Past Weeks

 TemperatureHumidityPressure
High85 °F (Apr 26, 2:52 PM)97% (Apr 28, 4:59 PM)30.49 "Hg (Apr 28, 4:59 PM)
Low44 °F (Apr 15, 6:52 AM)18% (Apr 20, 4:52 PM)29.68 "Hg (Apr 26, 5:52 PM)
Average62 °F59%30.08 "Hg
* Reported Apr 15 2:52 AM — Apr 30 2:52 AM, Alexandria, Weather by CustomWeather, © 2016

Note: Actual official high and low records may vary slightly from our data, if they occured in-between our weather recording intervals... More about our weather records

Advertising

Alexandria Weather History for the Previous 24 Hours

Scroll right to see more
 ConditionsComfort  
Time TempWeatherWind HumidityBarometerVisibility
2:52 AM
Sat, Apr 30
52 °FLow clouds.8 mph93%30.13 "Hg10 mi
1:52 AM52 °FLow clouds.6 mph93%30.13 "Hg10 mi
12:52 AM53 °FLow clouds.8 mph89%30.13 "Hg10 mi
12:00 AM53 °FMostly cloudy.7 mph89%30.12 "Hg10 mi
11:01 PM
Fri, Apr 29
53 °FMostly cloudy.8 mph89%30.10 "Hg10 mi
10:52 PM53 °FMostly cloudy.6 mph89%30.10 "Hg10 mi
9:52 PM53 °FMostly cloudy.6 mph89%30.11 "Hg10 mi
8:52 PM53 °FMore clouds than sun.8 mph89%30.07 "Hg7 mi
7:52 PM54 °FOvercast.9 mph86%30.06 "Hg10 mi
6:52 PM54 °FOvercast.8 mph86%30.04 "Hg10 mi
5:52 PM55 °FOvercast.10 mph83%30.02 "Hg10 mi
4:52 PM55 °FOvercast.5 mph80%30.03 "Hg10 mi
3:52 PM55 °FOvercast.3 mph80%30.04 "Hg10 mi
2:52 PM54 °FOvercast.8 mph83%30.04 "Hg10 mi
1:52 PM53 °FOvercast.No wind86%30.06 "Hg10 mi
12:52 PM52 °FOvercast.8 mph86%30.04 "Hg10 mi
11:52 AM51 °FOvercast.8 mph89%30.07 "Hg7 mi
11:04 AM50 °FDrizzle. Fog.3 mph93%30.09 "Hg4 mi
10:52 AM50 °FDrizzle. Fog.7 mph93%30.07 "Hg3 mi
9:52 AM49 °FDrizzle. Fog.8 mph93%30.07 "Hg2 mi
8:52 AM49 °FFog.7 mph90%30.06 "Hg3 mi
7:52 AM48 °FFog.8 mph93%30.05 "Hg3 mi
6:52 AM49 °FFog.10 mph90%30.04 "Hg5 mi
5:52 AM49 °FLow clouds.9 mph90%30.03 "Hg9 mi
4:52 AM48 °FFog.7 mph93%30.02 "Hg5 mi
Weather by CustomWeather, © 2016

See weather overviewHow to use our weather pages